Location: Newark
(40.9833°N, 0.0333°W)
Time: 02:21:05
(UTC+00:00)

Altair - Pass Details

Date: 28 October 2020
Orbit: 1502 x 1682 km, 47.2° (Epoch: 02 December)

Event Time Altitude Azimuth Distance (km) Brightness Sun altitude
Rises 10:01:37 0° 294° (WNW) 4,744 9.7 30.7°
Reaches altitude 10° 10:04:39 10° 296° (WNW) 3,782 9.2 31.0°
Maximum altitude 10:14:22 83° 25° (NNE) 1,639 8.2 31.9°
Drops below altitude 10° 10:24:25 10° 113° (ESE) 3,909 10.4 32.6°
Sets 10:27:36 0° 115° (ESE) 4,909 10.7 32.9°
